Time,TemperatureF,DewpointF,PressureIn,WindDirection,WindDirectionDegrees,WindSpeedMPH,WindSpeedGustMPH,Humidity,HourlyPrecipIn,Conditions,Clouds,dailyrainin,SolarRadiationWatts/m^2,SoftwareType,DateUTC
2013-02-24 00:00:00,34.8,13.9,29.77,SW,222,3.0,-999.0,42,-99.99,,,0.00,0.0,cwc,2013-02-24 07:00:00,
2013-02-24 00:05:00,35.3,13.7,29.78,West,265,6.0,-999.0,40,-99.99,,,0.00,0.0,cwc,2013-02-24 07:05:00,
2013-02-24 00:10:00,35.9,13.9,29.78,West,259,0.0,-999.0,39,-99.99,,,0.00,0.0,cwc,2013-02-24 07:10:00,
2013-02-24 00:15:00,36.1,14.1,29.78,WSW,237,5.0,-999.0,39,-99.99,,,0.00,0.0,cwc,2013-02-24 07:15:00,
2013-02-24 00:20:00,36.3,14.0,29.78,West,259,3.0,-999.0,38,-99.99,,,0.00,0.0,cwc,2013-02-24 07:20:00,
2013-02-24 00:25:00,36.5,14.5,29.77,WSW,242,3.0,-999.0,39,-99.99,,,0.00,0.0,cwc,2013-02-24 07:25:00,
2013-02-24 00:30:00,36.7,14.4,29.78,WSW,251,7.0,-999.0,38,-99.99,,,0.00,0.0,cwc,2013-02-24 07:30:00,
2013-02-24 00:40:00,36.5,14.2,29.78,SW,215,7.0,-999.0,38,-99.99,,,0.00,0.0,cwc,2013-02-24 07:40:00,
2013-02-24 00:45:00,35.8,13.8,29.78,SW,218,7.0,-999.0,39,-99.99,,,0.00,0.0,cwc,2013-02-24 07:45:00,
2013-02-24 00:50:00,35.2,13.2,29.77,SW,215,6.0,-999.0,39,-99.99,,,0.00,0.0,cwc,2013-02-24 07:50:00,
2013-02-24 00:55:00,34.8,13.2,29.77,SW,214,7.0,-999.0,40,-99.99,,,0.00,0.0,cwc,2013-02-24 07:55:00,
2013-02-24 01:00:00,34.6,13.4,29.77,SW,215,6.0,-999.0,41,-99.99,,,0.00,0.0,cwc,2013-02-24 08:00:00,
2013-02-24 01:05:00,34.5,13.6,29.77,WSW,240,2.0,-999.0,42,-99.99,,,0.00,0.0,cwc,2013-02-24 08:05:00,
2013-02-24 01:10:00,34.4,13.2,29.78,SW,217,7.0,-999.0,41,-99.99,,,0.00,0.0,cwc,2013-02-24 08:10:00,
2013-02-24 01:15:00,34.4,13.5,29.78,SW,219,0.0,-999.0,42,-99.99,,,0.00,0.0,cwc,2013-02-24 08:15:00,
2013-02-24 01:20:00,34.4,13.9,29.78,SSW,211,5.0,-999.0,43,-99.99,,,0.00,0.0,cwc,2013-02-24 08:20:00,
2013-02-24 01:25:00,34.4,13.5,29.78,SSW,211,5.0,-999.0,42,-99.99,,,0.00,0.0,cwc,2013-02-24 08:25:00,
2013-02-24 01:30:00,34.9,15.5,29.78,SW,219,8.0,-999.0,46,-99.99,,,0.00,0.0,cwc,2013-02-24 08:30:00,
2013-02-24 01:35:00,35.3,17.7,29.78,SW,234,4.0,-999.0,51,-99.99,,,0.00,0.0,cwc,2013-02-24 08:35:00,
2013-02-24 01:40:00,35.6,18.3,29.78,West,270,8.0,-999.0,52,-99.99,,,0.00,0.0,cwc,2013-02-24 08:40:00,
2013-02-24 01:45:00,35.9,19.0,29.79,WSW,237,9.0,-999.0,53,-99.99,,,0.00,0.0,cwc,2013-02-24 08:45:00,
2013-02-24 01:50:00,35.9,19.0,29.79,SSW,211,10.0,-999.0,53,-99.99,,,0.00,0.0,cwc,2013-02-24 08:50:00,
2013-02-24 01:55:00,35.7,19.1,29.78,SSW,203,3.0,-999.0,54,-99.99,,,0.00,0.0,cwc,2013-02-24 08:55:00,
2013-02-24 02:00:00,35.5,18.9,29.78,West,269,0.0,-999.0,54,-99.99,,,0.00,0.0,cwc,2013-02-24 09:00:00,
2013-02-24 02:05:00,35.4,19.2,29.79,SW,227,9.0,-999.0,55,-99.99,,,0.00,0.0,cwc,2013-02-24 09:05:00,
2013-02-24 02:10:00,35.1,18.9,29.78,SW,229,5.0,-999.0,55,-99.99,,,0.00,0.0,cwc,2013-02-24 09:10:00,
2013-02-24 02:15:00,35.0,19.2,29.78,SW,227,5.0,-999.0,56,-99.99,,,0.00,0.0,cwc,2013-02-24 09:15:00,
2013-02-24 02:20:00,34.7,18.9,29.77,WSW,253,6.0,-999.0,56,-99.99,,,0.00,0.0,cwc,2013-02-24 09:20:00,
2013-02-24 02:25:00,34.4,18.9,29.77,SW,223,3.0,-999.0,57,-99.99,,,0.00,0.0,cwc,2013-02-24 09:25:00,
2013-02-24 02:30:00,34.4,18.9,29.77,SW,223,8.0,-999.0,57,-99.99,,,0.00,0.0,cwc,2013-02-24 09:30:00,
2013-02-24 02:35:00,34.4,19.3,29.76,SW,214,9.0,-999.0,58,-99.99,,,0.00,0.0,cwc,2013-02-24 09:35:00,
2013-02-24 02:40:00,34.2,19.1,29.77,SW,230,3.0,-999.0,58,-99.99,,,0.00,0.0,cwc,2013-02-24 09:40:00,
2013-02-24 02:45:00,34.0,19.2,29.76,SW,234,4.0,-999.0,59,-99.99,,,0.00,0.0,cwc,2013-02-24 09:45:00,
2013-02-24 02:50:00,33.9,19.1,29.77,SW,219,4.0,-999.0,59,-99.99,,,0.00,0.0,cwc,2013-02-24 09:50:00,
2013-02-24 02:55:00,33.8,19.4,29.77,SW,218,4.0,-999.0,60,-99.99,,,0.00,0.0,cwc,2013-02-24 09:55:00,
2013-02-24 03:00:00,33.7,19.3,29.77,SSW,200,7.0,-999.0,60,-99.99,,,0.00,0.0,cwc,2013-02-24 10:00:00,
2013-02-24 03:05:00,33.6,19.6,29.77,SW,228,8.0,-999.0,61,-99.99,,,0.00,0.0,cwc,2013-02-24 10:05:00,
2013-02-24 03:10:00,33.4,20.1,29.77,SW,221,3.0,-999.0,63,-99.99,,,0.00,0.0,cwc,2013-02-24 10:10:00,
2013-02-24 03:15:00,33.0,19.7,29.77,SSW,211,7.0,-999.0,63,-99.99,,,0.00,0.0,cwc,2013-02-24 10:15:00,
2013-02-24 03:20:00,32.8,20.2,29.77,SW,217,3.0,-999.0,65,-99.99,,,0.00,0.0,cwc,2013-02-24 10:20:00,
2013-02-24 03:25:00,32.4,20.2,29.77,SSW,204,6.0,-999.0,66,-99.99,,,0.00,0.0,cwc,2013-02-24 10:25:00,
2013-02-24 03:30:00,32.2,20.0,29.77,SW,222,7.0,-999.0,66,-99.99,,,0.00,0.0,cwc,2013-02-24 10:30:00,
2013-02-24 03:35:00,31.9,18.9,29.77,SSW,206,7.0,-999.0,64,-99.99,,,0.00,0.0,cwc,2013-02-24 10:35:00,
2013-02-24 03:40:00,31.8,18.5,29.77,SW,228,5.0,-999.0,63,-99.99,,,0.00,0.0,cwc,2013-02-24 10:40:00,
2013-02-24 03:45:00,31.7,18.4,29.77,SSW,199,3.0,-999.0,63,-99.99,,,0.00,0.0,cwc,2013-02-24 10:45:00,
2013-02-24 03:55:00,31.5,17.8,29.77,SW,232,0.0,-999.0,62,-99.99,,,0.00,0.0,cwc,2013-02-24 10:55:00,
2013-02-24 04:00:00,31.4,17.7,29.78,SW,218,0.0,-999.0,62,-99.99,,,0.00,0.0,cwc,2013-02-24 11:00:00,
2013-02-24 04:05:00,31.3,17.6,29.78,SW,218,1.0,-999.0,62,-99.99,,,0.00,0.0,cwc,2013-02-24 11:05:00,
2013-02-24 04:15:00,31.1,17.1,29.78,SSW,213,0.0,-999.0,61,-99.99,,,0.00,0.0,cwc,2013-02-24 11:15:00,
2013-02-24 04:20:00,31.1,17.4,29.77,SSW,213,0.0,-999.0,62,-99.99,,,0.00,0.0,cwc,2013-02-24 11:20:00,
2013-02-24 04:25:00,31.0,17.0,29.77,SSW,213,0.0,-999.0,61,-99.99,,,0.00,0.0,cwc,2013-02-24 11:25:00,
2013-02-24 04:30:00,30.9,16.9,29.77,SSW,213,0.0,-999.0,61,-99.99,,,0.00,0.0,cwc,2013-02-24 11:30:00,
2013-02-24 04:35:00,30.8,17.1,29.78,SSW,213,1.0,-999.0,62,-99.99,,,0.00,0.0,cwc,2013-02-24 11:35:00,
2013-02-24 04:40:00,30.7,16.7,29.78,SSW,213,0.0,-999.0,61,-99.99,,,0.00,0.0,cwc,2013-02-24 11:40:00,
2013-02-24 04:45:00,30.6,16.6,29.78,NNW,337,1.0,-999.0,61,-99.99,,,0.00,0.0,cwc,2013-02-24 11:45:00,
2013-02-24 04:50:00,30.5,16.5,29.77,NNW,344,7.0,-999.0,61,-99.99,,,0.00,0.0,cwc,2013-02-24 11:50:00,
2013-02-24 04:55:00,30.4,16.4,29.77,NNW,346,0.0,-999.0,61,-99.99,,,0.00,0.0,cwc,2013-02-24 11:55:00,
2013-02-24 05:00:00,30.3,16.3,29.77,NNW,346,0.0,-999.0,61,-99.99,,,0.00,0.0,cwc,2013-02-24 12:00:00,
2013-02-24 05:05:00,30.2,16.2,29.76,NNW,346,0.0,-999.0,61,-99.99,,,0.00,0.0,cwc,2013-02-24 12:05:00,
2013-02-24 05:10:00,30.1,16.1,29.75,NNW,345,0.0,-999.0,61,-99.99,,,0.00,0.0,cwc,2013-02-24 12:10:00,
2013-02-24 05:15:00,30.0,16.0,29.75,NNW,346,0.0,-999.0,61,-99.99,,,0.00,0.0,cwc,2013-02-24 12:15:00,
2013-02-24 05:20:00,29.9,15.9,29.75,NNW,346,2.0,-999.0,61,-99.99,,,0.00,0.0,cwc,2013-02-24 12:20:00,
2013-02-24 05:25:00,29.7,15.7,29.75,NNW,345,1.0,-999.0,61,-99.99,,,0.00,0.0,cwc,2013-02-24 12:25:00,
2013-02-24 05:30:00,29.7,15.7,29.75,NNW,346,0.0,-999.0,61,-99.99,,,0.00,0.0,cwc,2013-02-24 12:30:00,
2013-02-24 05:35:00,29.7,15.7,29.76,NNW,346,0.0,-999.0,61,-99.99,,,0.00,0.0,cwc,2013-02-24 12:35:00,
2013-02-24 05:40:00,29.6,15.9,29.76,NNW,346,2.0,-999.0,62,-99.99,,,0.00,0.0,cwc,2013-02-24 12:40:00,
2013-02-24 05:45:00,29.5,15.8,29.76,NNW,345,0.0,-999.0,62,-99.99,,,0.00,0.0,cwc,2013-02-24 12:45:00,
2013-02-24 05:50:00,29.4,15.7,29.76,WSW,250,4.0,-999.0,62,-99.99,,,0.00,0.0,cwc,2013-02-24 12:50:00,
2013-02-24 05:55:00,29.5,15.5,29.76,WSW,250,4.0,-999.0,61,-99.99,,,0.00,0.0,cwc,2013-02-24 12:55:00,
2013-02-24 06:00:00,29.5,15.5,29.76,WSW,247,6.0,-999.0,61,-99.99,,,0.00,0.0,cwc,2013-02-24 13:00:00,
2013-02-24 06:10:00,29.5,15.1,29.76,WSW,242,3.0,-999.0,60,-99.99,,,0.00,0.0,cwc,2013-02-24 13:10:00,
2013-02-24 06:15:00,29.5,15.1,29.76,WSW,242,0.0,-999.0,60,-99.99,,,0.00,0.0,cwc,2013-02-24 13:15:00,
2013-02-24 06:20:00,29.5,15.1,29.76,WSW,241,0.0,-999.0,60,-99.99,,,0.00,0.0,cwc,2013-02-24 13:20:00,
2013-02-24 06:25:00,29.4,15.0,29.75,WSW,241,0.0,-999.0,60,-99.99,,,0.00,0.0,cwc,2013-02-24 13:25:00,
2013-02-24 06:30:00,29.3,14.9,29.75,WSW,242,0.0,-999.0,60,-99.99,,,0.00,0.0,cwc,2013-02-24 13:30:00,
2013-02-24 06:40:00,29.2,15.2,29.74,WSW,241,0.0,-999.0,61,-99.99,,,0.00,5.0,cwc,2013-02-24 13:40:00,
2013-02-24 06:45:00,29.1,15.1,29.74,WSW,242,0.0,-999.0,61,-99.99,,,0.00,0.0,cwc,2013-02-24 13:45:00,
2013-02-24 06:50:00,29.0,15.3,29.74,WSW,242,0.0,-999.0,62,-99.99,,,0.00,5.0,cwc,2013-02-24 13:50:00,
2013-02-24 06:55:00,28.8,14.8,29.75,WSW,241,3.0,-999.0,61,-99.99,,,0.00,9.0,cwc,2013-02-24 13:55:00,
2013-02-24 07:00:00,28.7,14.7,29.75,WSW,244,1.0,-999.0,61,-99.99,,,0.00,16.0,cwc,2013-02-24 14:00:00,
2013-02-24 07:05:00,28.7,14.7,29.75,SW,229,2.0,-999.0,61,-99.99,,,0.00,25.0,cwc,2013-02-24 14:05:00,
2013-02-24 07:10:00,28.6,14.2,29.75,SW,221,5.0,-999.0,60,-99.99,,,0.00,30.0,cwc,2013-02-24 14:10:00,
2013-02-24 07:15:00,28.6,14.2,29.75,SW,229,1.0,-999.0,60,-99.99,,,0.00,33.0,cwc,2013-02-24 14:15:00,
2013-02-24 07:20:00,28.5,13.7,29.75,SW,229,0.0,-999.0,59,-99.99,,,0.00,46.0,cwc,2013-02-24 14:20:00,
2013-02-24 07:25:00,28.4,13.6,29.75,SW,227,4.0,-999.0,59,-99.99,,,0.00,56.0,cwc,2013-02-24 14:25:00,
2013-02-24 07:30:00,28.4,13.3,29.76,SW,228,1.0,-999.0,58,-99.99,,,0.00,56.0,cwc,2013-02-24 14:30:00,
2013-02-24 07:40:00,28.5,12.7,29.76,SW,227,0.0,-999.0,56,-99.99,,,0.00,63.0,cwc,2013-02-24 14:40:00,
2013-02-24 07:45:00,28.5,12.3,29.76,SW,228,1.0,-999.0,55,-99.99,,,0.00,83.0,cwc,2013-02-24 14:45:00,
2013-02-24 07:50:00,28.6,12.4,29.76,SW,227,0.0,-999.0,55,-99.99,,,0.00,84.0,cwc,2013-02-24 14:50:00,
2013-02-24 07:55:00,28.7,12.1,29.76,SW,227,7.0,-999.0,54,-99.99,,,0.00,67.0,cwc,2013-02-24 14:55:00,
2013-02-24 08:00:00,28.7,11.4,29.76,SW,223,7.0,-999.0,52,-99.99,,,0.00,113.0,cwc,2013-02-24 15:00:00,
2013-02-24 08:10:00,29.0,11.7,29.76,SSW,210,3.0,-999.0,52,-99.99,,,0.00,178.0,cwc,2013-02-24 15:10:00,
2013-02-24 08:15:00,29.4,12.1,29.76,SSE,159,2.0,-999.0,52,-99.99,,,0.00,206.0,cwc,2013-02-24 15:15:00,
2013-02-24 08:20:00,29.7,12.4,29.76,NE,43,2.0,-999.0,52,-99.99,,,0.00,190.0,cwc,2013-02-24 15:20:00,
2013-02-24 08:25:00,29.9,12.6,29.77,SW,232,0.0,-999.0,52,-99.99,,,0.00,213.0,cwc,2013-02-24 15:25:00,
2013-02-24 08:30:00,30.1,12.8,29.77,SE,139,2.0,-999.0,52,-99.99,,,0.00,220.0,cwc,2013-02-24 15:30:00,
2013-02-24 08:35:00,30.2,12.9,29.77,SSE,163,4.0,-999.0,52,-99.99,,,0.00,209.0,cwc,2013-02-24 15:35:00,
2013-02-24 08:40:00,30.3,12.7,29.77,SE,140,4.0,-999.0,51,-99.99,,,0.00,218.0,cwc,2013-02-24 15:40:00,
2013-02-24 08:45:00,30.3,12.7,29.76,South,188,0.0,-999.0,51,-99.99,,,0.00,225.0,cwc,2013-02-24 15:45:00,
2013-02-24 08:50:00,30.6,13.0,29.77,South,187,2.0,-999.0,51,-99.99,,,0.00,258.0,cwc,2013-02-24 15:50:00,
2013-02-24 08:55:00,30.8,12.8,29.77,East,101,1.0,-999.0,50,-99.99,,,0.00,294.0,cwc,2013-02-24 15:55:00,
2013-02-24 09:00:00,31.2,12.5,29.77,ESE,116,1.0,-999.0,48,-99.99,,,0.00,320.0,cwc,2013-02-24 16:00:00,
2013-02-24 09:05:00,31.4,12.7,29.76,ESE,117,1.0,-999.0,48,-99.99,,,0.00,329.0,cwc,2013-02-24 16:05:00,
2013-02-24 09:10:00,31.8,12.7,29.76,ESE,109,1.0,-999.0,47,-99.99,,,0.00,316.0,cwc,2013-02-24 16:10:00,
2013-02-24 09:15:00,32.0,12.6,29.76,South,178,4.0,-999.0,46,-99.99,,,0.00,374.0,cwc,2013-02-24 16:15:00,
2013-02-24 09:20:00,32.0,11.8,29.75,SW,215,8.0,-999.0,44,-99.99,,,0.00,418.0,cwc,2013-02-24 16:20:00,
2013-02-24 09:25:00,31.7,11.5,29.75,SW,225,4.0,-999.0,44,-99.99,,,0.00,468.0,cwc,2013-02-24 16:25:00,
2013-02-24 09:30:00,31.6,11.4,29.75,SW,223,0.0,-999.0,44,-99.99,,,0.00,489.0,cwc,2013-02-24 16:30:00,
2013-02-24 09:35:00,32.1,11.2,29.74,ENE,76,0.0,-999.0,42,-99.99,,,0.00,360.0,cwc,2013-02-24 16:35:00,
2013-02-24 09:40:00,32.9,11.7,29.74,SSW,194,4.0,-999.0,41,-99.99,,,0.00,554.0,cwc,2013-02-24 16:40:00,
2013-02-24 09:45:00,32.8,11.9,29.74,South,178,4.0,-999.0,42,-99.99,,,0.00,566.0,cwc,2013-02-24 16:45:00,
2013-02-24 09:50:00,32.8,11.6,29.74,SSW,213,0.0,-999.0,41,-99.99,,,0.00,577.0,cwc,2013-02-24 16:50:00,
2013-02-24 09:55:00,32.9,11.3,29.73,South,182,5.0,-999.0,40,-99.99,,,0.00,585.0,cwc,2013-02-24 16:55:00,
2013-02-24 10:00:00,33.3,11.3,29.73,SSW,205,4.0,-999.0,39,-99.99,,,0.00,608.0,cwc,2013-02-24 17:00:00,
2013-02-24 10:05:00,33.6,10.9,29.73,SW,219,7.0,-999.0,37,-99.99,,,0.00,619.0,cwc,2013-02-24 17:05:00,
2013-02-24 10:10:00,33.7,11.4,29.72,South,186,4.0,-999.0,38,-99.99,,,0.00,570.0,cwc,2013-02-24 17:10:00,
2013-02-24 10:15:00,33.9,10.9,29.72,SW,224,1.0,-999.0,36,-99.99,,,0.00,515.0,cwc,2013-02-24 17:15:00,
2013-02-24 10:20:00,34.3,11.3,29.72,SW,227,1.0,-999.0,36,-99.99,,,0.00,585.0,cwc,2013-02-24 17:20:00,
2013-02-24 10:25:00,34.8,12.1,29.72,NE,42,3.0,-999.0,37,-99.99,,,0.00,664.0,cwc,2013-02-24 17:25:00,
2013-02-24 10:30:00,35.2,12.9,29.73,NNE,28,4.0,-999.0,38,-99.99,,,0.00,682.0,cwc,2013-02-24 17:30:00,
2013-02-24 10:35:00,35.1,12.8,29.73,North,355,4.0,-999.0,38,-99.99,,,0.00,650.0,cwc,2013-02-24 17:35:00,
2013-02-24 10:40:00,35.6,12.9,29.73,SW,220,4.0,-999.0,37,-99.99,,,0.00,624.0,cwc,2013-02-24 17:40:00,
2013-02-24 10:45:00,35.7,12.7,29.73,NNE,29,9.0,-999.0,36,-99.99,,,0.00,494.0,cwc,2013-02-24 17:45:00,
2013-02-24 10:50:00,35.1,12.1,29.73,NE,46,5.0,-999.0,36,-99.99,,,0.00,591.0,cwc,2013-02-24 17:50:00,
2013-02-24 10:55:00,34.8,11.8,29.72,NNE,16,0.0,-999.0,36,-99.99,,,0.00,610.0,cwc,2013-02-24 17:55:00,
2013-02-24 11:00:00,35.0,12.3,29.71,NNE,21,2.0,-999.0,37,-99.99,,,0.00,418.0,cwc,2013-02-24 18:00:00,
2013-02-24 11:05:00,35.7,13.0,29.71,North,5,5.0,-999.0,37,-99.99,,,0.00,721.0,cwc,2013-02-24 18:05:00,
2013-02-24 11:10:00,35.6,11.8,29.71,NNE,23,0.0,-999.0,34,-99.99,,,0.00,729.0,cwc,2013-02-24 18:10:00,
2013-02-24 11:15:00,35.8,12.0,29.71,NNE,23,2.0,-999.0,34,-99.99,,,0.00,740.0,cwc,2013-02-24 18:15:00,
2013-02-24 11:20:00,36.2,12.1,29.70,SW,227,6.0,-999.0,33,-99.99,,,0.00,752.0,cwc,2013-02-24 18:20:00,
2013-02-24 11:25:00,36.3,12.2,29.70,SW,217,7.0,-999.0,33,-99.99,,,0.00,721.0,cwc,2013-02-24 18:25:00,
2013-02-24 11:30:00,36.4,12.3,29.70,SW,218,0.0,-999.0,33,-99.99,,,0.00,742.0,cwc,2013-02-24 18:30:00,
2013-02-24 11:35:00,36.6,12.1,29.70,SW,219,4.0,-999.0,32,-99.99,,,0.00,647.0,cwc,2013-02-24 18:35:00,
2013-02-24 11:40:00,36.8,12.7,29.69,SW,229,3.0,-999.0,33,-99.99,,,0.00,663.0,cwc,2013-02-24 18:40:00,
2013-02-24 11:45:00,37.1,12.6,29.69,SW,230,0.0,-999.0,32,-99.99,,,0.00,714.0,cwc,2013-02-24 18:45:00,
2013-02-24 11:50:00,37.6,12.4,29.69,SW,232,2.0,-999.0,30,-99.99,,,0.00,613.0,cwc,2013-02-24 18:50:00,
2013-02-24 11:55:00,37.6,12.8,29.68,SW,235,4.0,-999.0,31,-99.99,,,0.00,765.0,cwc,2013-02-24 18:55:00,
2013-02-24 12:00:00,37.9,12.7,29.67,SW,236,3.0,-999.0,30,-99.99,,,0.00,770.0,cwc,2013-02-24 19:00:00,
2013-02-24 12:05:00,38.3,13.1,29.67,WSW,238,4.0,-999.0,30,-99.99,,,0.00,766.0,cwc,2013-02-24 19:05:00,
2013-02-24 12:10:00,38.5,13.7,29.67,West,265,4.0,-999.0,31,-99.99,,,0.00,772.0,cwc,2013-02-24 19:10:00,
2013-02-24 12:15:00,39.2,14.4,29.66,West,279,1.0,-999.0,31,-99.99,,,0.00,777.0,cwc,2013-02-24 19:15:00,
2013-02-24 12:20:00,39.5,14.3,29.66,SW,230,8.0,-999.0,30,-99.99,,,0.00,793.0,cwc,2013-02-24 19:20:00,
2013-02-24 12:25:00,38.8,13.6,29.65,South,175,2.0,-999.0,30,-99.99,,,0.00,779.0,cwc,2013-02-24 19:25:00,
2013-02-24 12:30:00,39.0,14.2,29.65,South,175,0.0,-999.0,31,-99.99,,,0.00,795.0,cwc,2013-02-24 19:30:00,
2013-02-24 12:35:00,39.9,15.1,29.65,ESE,106,2.0,-999.0,31,-99.99,,,0.00,657.0,cwc,2013-02-24 19:35:00,
2013-02-24 12:40:00,40.2,14.6,29.65,North,5,1.0,-999.0,29,-99.99,,,0.00,598.0,cwc,2013-02-24 19:40:00,
2013-02-24 12:45:00,40.2,14.3,29.65,NE,51,0.0,-999.0,28,-99.99,,,0.00,608.0,cwc,2013-02-24 19:45:00,
2013-02-24 12:50:00,39.7,13.8,29.64,ENE,61,2.0,-999.0,28,-99.99,,,0.00,388.0,cwc,2013-02-24 19:50:00,
2013-02-24 12:55:00,39.1,13.5,29.64,NE,37,2.0,-999.0,29,-99.99,,,0.00,758.0,cwc,2013-02-24 19:55:00,
2013-02-24 13:00:00,39.3,13.7,29.63,NE,46,3.0,-999.0,29,-99.99,,,0.00,737.0,cwc,2013-02-24 20:00:00,
2013-02-24 13:05:00,39.9,14.0,29.63,ENE,78,4.0,-999.0,28,-99.99,,,0.00,563.0,cwc,2013-02-24 20:05:00,
2013-02-24 13:10:00,40.1,14.5,29.62,NNE,26,0.0,-999.0,29,-99.99,,,0.00,666.0,cwc,2013-02-24 20:10:00,
2013-02-24 13:15:00,40.5,14.6,29.62,SW,229,6.0,-999.0,28,-99.99,,,0.00,591.0,cwc,2013-02-24 20:15:00,
2013-02-24 13:20:00,40.4,14.5,29.62,SW,232,0.0,-999.0,28,-99.99,,,0.00,490.0,cwc,2013-02-24 20:20:00,
2013-02-24 13:25:00,40.4,14.5,29.62,NE,37,5.0,-999.0,28,-99.99,,,0.00,466.0,cwc,2013-02-24 20:25:00,
2013-02-24 13:30:00,40.4,14.5,29.61,North,355,3.0,-999.0,28,-99.99,,,0.00,547.0,cwc,2013-02-24 20:30:00,
2013-02-24 13:35:00,40.6,14.7,29.61,SE,146,0.0,-999.0,28,-99.99,,,0.00,638.0,cwc,2013-02-24 20:35:00,
2013-02-24 13:40:00,40.9,15.0,29.61,SW,219,7.0,-999.0,28,-99.99,,,0.00,490.0,cwc,2013-02-24 20:40:00,
2013-02-24 13:45:00,41.1,15.2,29.60,WSW,239,3.0,-999.0,28,-99.99,,,0.00,919.0,cwc,2013-02-24 20:45:00,
2013-02-24 13:50:00,41.9,16.0,29.60,WSW,240,3.0,-999.0,28,-99.99,,,0.00,457.0,cwc,2013-02-24 20:50:00,
2013-02-24 13:55:00,42.1,15.8,29.60,NW,315,1.0,-999.0,27,-99.99,,,0.00,401.0,cwc,2013-02-24 20:55:00,
2013-02-24 14:00:00,42.0,16.1,29.60,NW,316,1.0,-999.0,28,-99.99,,,0.00,353.0,cwc,2013-02-24 21:00:00,
2013-02-24 14:05:00,42.1,16.2,29.60,NNW,330,4.0,-999.0,28,-99.99,,,0.00,341.0,cwc,2013-02-24 21:05:00,
2013-02-24 14:10:00,41.6,15.3,29.60,NNW,340,3.0,-999.0,27,-99.99,,,0.00,459.0,cwc,2013-02-24 21:10:00,
2013-02-24 14:15:00,41.4,15.5,29.60,NNW,343,4.0,-999.0,28,-99.99,,,0.00,684.0,cwc,2013-02-24 21:15:00,
2013-02-24 14:20:00,41.8,16.2,29.60,NE,53,4.0,-999.0,29,-99.99,,,0.00,708.0,cwc,2013-02-24 21:20:00,
2013-02-24 14:25:00,42.3,15.7,29.60,NE,45,7.0,-999.0,26,-99.99,,,0.00,650.0,cwc,2013-02-24 21:25:00,
2013-02-24 14:30:00,41.7,15.4,29.60,NE,39,7.0,-999.0,27,-99.99,,,0.00,225.0,cwc,2013-02-24 21:30:00,
2013-02-24 14:35:00,41.1,14.8,29.60,NNE,28,13.0,-999.0,27,-99.99,,,0.00,216.0,cwc,2013-02-24 21:35:00,
2013-02-24 14:40:00,40.7,14.8,29.60,NNE,29,4.0,-999.0,28,-99.99,,,0.00,227.0,cwc,2013-02-24 21:40:00,
2013-02-24 14:45:00,40.6,15.0,29.60,NNE,32,9.0,-999.0,29,-99.99,,,0.00,418.0,cwc,2013-02-24 21:45:00,
2013-02-24 14:50:00,40.7,15.1,29.60,NE,43,4.0,-999.0,29,-99.99,,,0.00,294.0,cwc,2013-02-24 21:50:00,
2013-02-24 14:55:00,40.5,14.9,29.60,NE,41,5.0,-999.0,29,-99.99,,,0.00,355.0,cwc,2013-02-24 21:55:00,
2013-02-24 15:00:00,40.6,15.4,29.60,NNE,29,6.0,-999.0,30,-99.99,,,0.00,390.0,cwc,2013-02-24 22:00:00,
2013-02-24 15:05:00,41.1,15.9,29.60,NE,46,7.0,-999.0,30,-99.99,,,0.00,297.0,cwc,2013-02-24 22:05:00,
2013-02-24 15:10:00,41.1,15.5,29.60,NNE,21,6.0,-999.0,29,-99.99,,,0.00,223.0,cwc,2013-02-24 22:10:00,
2013-02-24 15:15:00,40.8,15.2,29.60,NNW,344,2.0,-999.0,29,-99.99,,,0.00,239.0,cwc,2013-02-24 22:15:00,
2013-02-24 15:20:00,40.7,15.5,29.60,NE,46,1.0,-999.0,30,-99.99,,,0.00,144.0,cwc,2013-02-24 22:20:00,
2013-02-24 15:25:00,40.6,15.4,29.61,NE,53,6.0,-999.0,30,-99.99,,,0.00,97.0,cwc,2013-02-24 22:25:00,
2013-02-24 15:30:00,40.0,15.2,29.61,NE,53,15.0,-999.0,31,-99.99,,,0.00,81.0,cwc,2013-02-24 22:30:00,
2013-02-24 15:35:00,39.2,15.1,29.62,NE,40,10.0,-999.0,33,-99.99,,,0.00,95.0,cwc,2013-02-24 22:35:00,
2013-02-24 15:40:00,38.6,14.8,29.62,NE,48,13.0,-999.0,34,-99.99,,,0.00,139.0,cwc,2013-02-24 22:40:00,
2013-02-24 15:45:00,38.3,15.3,29.63,NE,34,6.0,-999.0,36,-99.99,,,0.00,185.0,cwc,2013-02-24 22:45:00,
2013-02-24 15:50:00,38.0,15.7,29.63,NE,45,7.0,-999.0,38,-99.99,,,0.00,209.0,cwc,2013-02-24 22:50:00,
2013-02-24 15:55:00,37.8,15.5,29.64,ENE,58,5.0,-999.0,38,-99.99,,,0.00,202.0,cwc,2013-02-24 22:55:00,
2013-02-24 16:00:00,37.7,15.7,29.64,ENE,60,8.0,-999.0,39,-99.99,,,0.00,160.0,cwc,2013-02-24 23:00:00,
2013-02-24 16:05:00,37.4,16.2,29.65,NNE,32,16.0,-999.0,41,-99.99,,,0.00,137.0,cwc,2013-02-24 23:05:00,
2013-02-24 16:10:00,36.8,15.2,29.65,NE,46,13.0,-999.0,40,-99.99,,,0.00,88.0,cwc,2013-02-24 23:10:00,
2013-02-24 16:15:00,36.1,14.9,29.65,NE,49,8.0,-999.0,41,-99.99,,,0.00,76.0,cwc,2013-02-24 23:15:00,
2013-02-24 16:20:00,35.9,14.3,29.65,NE,44,7.0,-999.0,40,-99.99,,,0.00,62.0,cwc,2013-02-24 23:20:00,
2013-02-24 16:25:00,35.9,13.9,29.66,NNE,20,7.0,-999.0,39,-99.99,,,0.00,46.0,cwc,2013-02-24 23:25:00,
2013-02-24 16:30:00,35.9,13.9,29.66,North,11,6.0,-999.0,39,-99.99,,,0.00,39.0,cwc,2013-02-24 23:30:00,
2013-02-24 16:35:00,35.9,13.9,29.66,North,10,10.0,-999.0,39,-99.99,,,0.00,30.0,cwc,2013-02-24 23:35:00,
2013-02-24 16:40:00,35.7,14.5,29.67,ENE,63,7.0,-999.0,41,-99.99,,,0.00,21.0,cwc,2013-02-24 23:40:00,
2013-02-24 16:45:00,35.6,14.4,29.66,North,355,10.0,-999.0,41,-99.99,,,0.00,19.0,cwc,2013-02-24 23:45:00,
2013-02-24 16:50:00,35.5,14.3,29.67,NNE,20,4.0,-999.0,41,-99.99,,,0.00,18.0,cwc,2013-02-24 23:50:00,
2013-02-24 16:55:00,35.4,16.0,29.67,ENE,57,14.0,-999.0,46,-99.99,,,0.00,11.0,cwc,2013-02-24 23:55:00,
2013-02-24 17:00:00,34.8,16.8,29.68,NE,47,6.0,-999.0,50,-99.99,,,0.00,7.0,cwc,2013-02-25 00:00:00,
2013-02-24 17:05:00,34.3,19.2,29.68,ENE,61,10.0,-999.0,58,-99.99,,,0.00,5.0,cwc,2013-02-25 00:05:00,
2013-02-24 17:10:00,33.0,19.3,29.69,NE,34,17.0,-999.0,62,-99.99,,,0.00,7.0,cwc,2013-02-25 00:10:00,
2013-02-24 17:15:00,31.9,21.1,29.70,NNE,33,12.0,-999.0,70,-99.99,,,0.00,0.0,cwc,2013-02-25 00:15:00,
2013-02-24 17:20:00,31.1,21.0,29.70,NNE,33,16.0,-999.0,72,-99.99,,,0.00,0.0,cwc,2013-02-25 00:20:00,
2013-02-24 17:25:00,30.7,21.7,29.70,NE,42,7.0,-999.0,75,-99.99,,,0.00,0.0,cwc,2013-02-25 00:25:00,
2013-02-24 17:30:00,30.4,22.5,29.71,NE,34,6.0,-999.0,78,-99.99,,,0.00,0.0,cwc,2013-02-25 00:30:00,
2013-02-24 17:35:00,30.0,22.8,29.71,NNE,18,4.0,-999.0,80,-99.99,,,0.00,0.0,cwc,2013-02-25 00:35:00,
2013-02-24 17:40:00,29.5,23.0,29.71,NNW,345,4.0,-999.0,82,-99.99,,,0.00,0.0,cwc,2013-02-25 00:40:00,
2013-02-24 17:45:00,29.1,23.3,29.72,NNW,347,5.0,-999.0,84,-99.99,,,0.00,0.0,cwc,2013-02-25 00:45:00,
2013-02-24 17:50:00,28.8,23.4,29.72,North,9,3.0,-999.0,85,-99.99,,,0.00,0.0,cwc,2013-02-25 00:50:00,
2013-02-24 17:55:00,28.7,23.7,29.72,NW,323,3.0,-999.0,86,-99.99,,,0.00,0.0,cwc,2013-02-25 00:55:00,
2013-02-24 18:00:00,28.6,23.9,29.72,North,360,1.0,-999.0,87,-99.99,,,0.00,0.0,cwc,2013-02-25 01:00:00,
2013-02-24 18:05:00,28.6,23.9,29.72,North,360,4.0,-999.0,87,-99.99,,,0.00,0.0,cwc,2013-02-25 01:05:00,
2013-02-24 18:10:00,28.7,24.0,29.72,North,11,5.0,-999.0,87,-99.99,,,0.00,0.0,cwc,2013-02-25 01:10:00,
2013-02-24 18:15:00,28.7,24.4,29.73,North,10,1.0,-999.0,88,-99.99,,,0.00,0.0,cwc,2013-02-25 01:15:00,
2013-02-24 18:20:00,28.7,24.4,29.73,NE,35,4.0,-999.0,88,-99.99,,,0.00,0.0,cwc,2013-02-25 01:20:00,
2013-02-24 18:25:00,28.6,24.3,29.73,NE,34,0.0,-999.0,88,-99.99,,,0.00,0.0,cwc,2013-02-25 01:25:00,
2013-02-24 18:30:00,28.5,24.2,29.73,NE,36,0.0,-999.0,88,-99.99,,,0.00,0.0,cwc,2013-02-25 01:30:00,
2013-02-24 18:35:00,28.4,24.1,29.74,NE,36,0.0,-999.0,88,-99.99,,,0.00,0.0,cwc,2013-02-25 01:35:00,
2013-02-24 18:40:00,28.4,24.1,29.74,NE,36,0.0,-999.0,88,-99.99,,,0.00,0.0,cwc,2013-02-25 01:40:00,
2013-02-24 18:45:00,28.3,24.0,29.75,NE,36,0.0,-999.0,88,-99.99,,,0.00,0.0,cwc,2013-02-25 01:45:00,
2013-02-24 18:50:00,28.3,24.0,29.75,NE,36,0.0,-999.0,88,-99.99,,,0.00,0.0,cwc,2013-02-25 01:50:00,
2013-02-24 18:55:00,28.3,24.0,29.75,NE,36,0.0,-999.0,88,-99.99,,,0.00,0.0,cwc,2013-02-25 01:55:00,
2013-02-24 19:00:00,28.3,24.0,29.76,NE,36,0.0,-999.0,88,-99.99,,,0.00,0.0,cwc,2013-02-25 02:00:00,
2013-02-24 19:05:00,28.4,23.7,29.76,NE,36,0.0,-999.0,87,-99.99,,,0.00,0.0,cwc,2013-02-25 02:05:00,
2013-02-24 19:10:00,28.4,23.7,29.76,West,271,3.0,-999.0,87,-99.99,,,0.00,0.0,cwc,2013-02-25 02:10:00,
2013-02-24 19:15:00,28.6,23.6,29.76,SW,233,1.0,-999.0,86,-99.99,,,0.00,0.0,cwc,2013-02-25 02:15:00,
2013-02-24 19:20:00,28.6,23.2,29.76,SW,234,2.0,-999.0,85,-99.99,,,0.00,0.0,cwc,2013-02-25 02:20:00,
2013-02-24 19:25:00,28.6,22.8,29.76,SW,234,0.0,-999.0,84,-99.99,,,0.00,0.0,cwc,2013-02-25 02:25:00,
2013-02-24 19:30:00,28.7,22.6,29.77,SW,234,0.0,-999.0,83,-99.99,,,0.00,0.0,cwc,2013-02-25 02:30:00,
2013-02-24 19:35:00,28.7,22.2,29.77,SW,234,0.0,-999.0,82,-99.99,,,0.00,0.0,cwc,2013-02-25 02:35:00,
2013-02-24 19:40:00,28.8,22.3,29.77,SW,234,0.0,-999.0,82,-99.99,,,0.00,0.0,cwc,2013-02-25 02:40:00,
2013-02-24 19:45:00,28.8,22.3,29.77,SW,234,2.0,-999.0,82,-99.99,,,0.00,0.0,cwc,2013-02-25 02:45:00,
2013-02-24 19:50:00,28.7,22.2,29.77,NNE,31,0.0,-999.0,82,-99.99,,,0.00,0.0,cwc,2013-02-25 02:50:00,
2013-02-24 19:55:00,28.6,22.1,29.77,NE,37,0.0,-999.0,82,-99.99,,,0.00,0.0,cwc,2013-02-25 02:55:00,
2013-02-24 20:00:00,28.5,21.3,29.77,NE,36,0.0,-999.0,80,-99.99,,,0.00,0.0,cwc,2013-02-25 03:00:00,
2013-02-24 20:05:00,28.5,21.3,29.78,WNW,298,1.0,-999.0,80,-99.99,,,0.00,0.0,cwc,2013-02-25 03:05:00,
2013-02-24 20:10:00,28.5,20.9,29.78,WNW,298,0.0,-999.0,79,-99.99,,,0.00,0.0,cwc,2013-02-25 03:10:00,
2013-02-24 20:15:00,28.4,20.5,29.78,WNW,300,3.0,-999.0,78,-99.99,,,0.00,0.0,cwc,2013-02-25 03:15:00,
2013-02-24 20:20:00,28.4,19.4,29.78,NNE,21,2.0,-999.0,75,-99.99,,,0.00,0.0,cwc,2013-02-25 03:20:00,
2013-02-24 20:25:00,28.4,19.4,29.78,NNE,22,2.0,-999.0,75,-99.99,,,0.00,0.0,cwc,2013-02-25 03:25:00,
2013-02-24 20:30:00,28.4,18.7,29.79,NNE,22,2.0,-999.0,73,-99.99,,,0.00,0.0,cwc,2013-02-25 03:30:00,
2013-02-24 20:35:00,28.4,18.7,29.79,NNE,22,2.0,-999.0,73,-99.99,,,0.00,0.0,cwc,2013-02-25 03:35:00,
2013-02-24 20:40:00,28.4,18.7,29.79,NNE,21,3.0,-999.0,73,-99.99,,,0.00,0.0,cwc,2013-02-25 03:40:00,
2013-02-24 20:45:00,28.4,19.0,29.80,NNE,22,4.0,-999.0,74,-99.99,,,0.00,0.0,cwc,2013-02-25 03:45:00,
2013-02-24 20:50:00,28.5,18.4,29.80,NNE,13,4.0,-999.0,72,-99.99,,,0.00,0.0,cwc,2013-02-25 03:50:00,
2013-02-24 20:55:00,28.4,18.3,29.80,NNE,26,2.0,-999.0,72,-99.99,,,0.00,0.0,cwc,2013-02-25 03:55:00,
2013-02-24 21:00:00,28.4,18.3,29.80,NE,37,4.0,-999.0,72,-99.99,,,0.00,0.0,cwc,2013-02-25 04:00:00,
2013-02-24 21:05:00,28.4,16.9,29.81,NE,56,11.0,-999.0,68,-99.99,,,0.00,0.0,cwc,2013-02-25 04:05:00,
2013-02-24 21:10:00,28.4,15.1,29.81,NE,43,6.0,-999.0,63,-99.99,,,0.00,0.0,cwc,2013-02-25 04:10:00,
2013-02-24 21:15:00,28.4,14.7,29.81,NNE,21,4.0,-999.0,62,-99.99,,,0.00,0.0,cwc,2013-02-25 04:15:00,
2013-02-24 21:20:00,28.4,14.4,29.81,NE,35,7.0,-999.0,61,-99.99,,,0.00,0.0,cwc,2013-02-25 04:20:00,
2013-02-24 21:25:00,28.5,13.7,29.82,NNE,21,10.0,-999.0,59,-99.99,,,0.00,0.0,cwc,2013-02-25 04:25:00,
2013-02-24 21:30:00,28.7,13.2,29.82,NE,46,6.0,-999.0,57,-99.99,,,0.00,0.0,cwc,2013-02-25 04:30:00,
2013-02-24 21:35:00,28.9,13.1,29.82,NNE,13,11.0,-999.0,56,-99.99,,,0.00,0.0,cwc,2013-02-25 04:35:00,
2013-02-24 21:40:00,29.1,13.6,29.83,NNE,32,4.0,-999.0,57,-99.99,,,0.00,0.0,cwc,2013-02-25 04:40:00,
2013-02-24 21:45:00,29.2,13.4,29.83,NE,34,7.0,-999.0,56,-99.99,,,0.00,0.0,cwc,2013-02-25 04:45:00,
2013-02-24 21:50:00,29.2,13.7,29.82,NNE,32,5.0,-999.0,57,-99.99,,,0.00,0.0,cwc,2013-02-25 04:50:00,
2013-02-24 21:55:00,29.2,14.1,29.83,NNE,19,4.0,-999.0,58,-99.99,,,0.00,0.0,cwc,2013-02-25 04:55:00,
2013-02-24 22:00:00,29.3,12.7,29.83,NE,42,7.0,-999.0,54,-99.99,,,0.00,0.0,cwc,2013-02-25 05:00:00,
2013-02-24 22:05:00,29.3,12.0,29.83,NE,44,5.0,-999.0,52,-99.99,,,0.00,0.0,cwc,2013-02-25 05:05:00,
2013-02-24 22:10:00,29.3,11.7,29.83,NE,36,5.0,-999.0,51,-99.99,,,0.00,0.0,cwc,2013-02-25 05:10:00,
2013-02-24 22:15:00,29.3,11.3,29.83,NE,41,6.0,-999.0,50,-99.99,,,0.00,0.0,cwc,2013-02-25 05:15:00,
2013-02-24 22:25:00,29.3,10.9,29.83,NNE,30,20.0,-999.0,49,-99.99,,,0.00,0.0,cwc,2013-02-25 05:25:00,
2013-02-24 22:30:00,29.3,10.6,29.83,NE,40,7.0,-999.0,48,-99.99,,,0.00,0.0,cwc,2013-02-25 05:30:00,
2013-02-24 22:35:00,29.4,10.3,29.83,NE,37,7.0,-999.0,47,-99.99,,,0.00,0.0,cwc,2013-02-25 05:35:00,
2013-02-24 22:40:00,29.3,10.2,29.84,NE,44,9.0,-999.0,47,-99.99,,,0.00,0.0,cwc,2013-02-25 05:40:00,
2013-02-24 22:45:00,29.2,10.1,29.84,NNE,32,8.0,-999.0,47,-99.99,,,0.00,0.0,cwc,2013-02-25 05:45:00,
2013-02-24 22:50:00,29.2,10.1,29.85,NE,46,7.0,-999.0,47,-99.99,,,0.00,0.0,cwc,2013-02-25 05:50:00,
2013-02-24 23:00:00,28.9,10.2,29.85,ENE,65,7.0,-999.0,48,-99.99,,,0.00,0.0,cwc,2013-02-25 06:00:00,
2013-02-24 23:05:00,28.8,10.4,29.85,ENE,65,2.0,-999.0,49,-99.99,,,0.00,0.0,cwc,2013-02-25 06:05:00,
2013-02-24 23:10:00,28.8,10.4,29.86,ENE,64,7.0,-999.0,49,-99.99,,,0.00,0.0,cwc,2013-02-25 06:10:00,
2013-02-24 23:15:00,28.7,10.7,29.86,ENE,64,4.0,-999.0,50,-99.99,,,0.00,0.0,cwc,2013-02-25 06:15:00,
2013-02-24 23:20:00,28.7,9.6,29.86,NE,48,6.0,-999.0,47,-99.99,,,0.00,0.0,cwc,2013-02-25 06:20:00,
2013-02-24 23:25:00,28.8,9.7,29.87,NNE,33,5.0,-999.0,47,-99.99,,,0.00,0.0,cwc,2013-02-25 06:25:00,
2013-02-24 23:30:00,28.9,9.5,29.87,ENE,60,11.0,-999.0,46,-99.99,,,0.00,0.0,cwc,2013-02-25 06:30:00,
2013-02-24 23:35:00,29.0,9.6,29.87,NE,42,4.0,-999.0,46,-99.99,,,0.00,0.0,cwc,2013-02-25 06:35:00,
2013-02-24 23:40:00,29.0,10.3,29.88,NE,40,3.0,-999.0,48,-99.99,,,0.00,0.0,cwc,2013-02-25 06:40:00,
2013-02-24 23:45:00,28.8,10.1,29.88,NE,38,4.0,-999.0,48,-99.99,,,0.00,0.0,cwc,2013-02-25 06:45:00,
2013-02-24 23:50:00,28.8,9.7,29.88,NE,36,5.0,-999.0,47,-99.99,,,0.00,0.0,cwc,2013-02-25 06:50:00,
2013-02-24 23:55:00,28.7,9.6,29.88,NNE,33,5.0,-999.0,47,-99.99,,,0.00,0.0,cwc,2013-02-25 06:55:00,